Weather History for KBML - January, 1997

Change the Weather History Date:

Friday, January 31, 1997

  Actual Average Record
Temperature  
Mean Temperature 18 °F -  
Max Temperature 28 °F 24 °F 55 °F (2013)
Min Temperature 7 °F 1 °F -25 °F (1999)
Degree Days  
Heating Degree Days 48    
Moisture  
Dew Point 13 °F    
Average Humidity 78    
Maximum Humidity 85    
Minimum Humidity 70    
Precipitation  
Precipitation 0.01 in - - ()
Sea Level Pressure  
Sea Level Pressure 29.97 in    
Wind  
Wind Speed 7 mph (South)    
Max Wind Speed 15 mph    
Max Gust Speed 20 mph    
Visibility 8 miles    
Events Snow    
Averages and records for this station are not official NWS values.
T = Trace of Precipitation, MM = Missing Value Source: NWS Daily Summary

Daily Weather History Graph

Daily Weather History Graph

Search for Another Location

Airport or City:

Trip Planner

Search our weather history database for the weather conditions in past years. The results will help you decide how hot, cold, wet, or windy it might be!

Date:

Astronomy

Jan. 31, 1997 Rise Set
Actual Time 7:04 AM EST 4:52 PM EST
Civil Twilight 6:33 AM EST 5:23 PM EST
Nautical Twilight 5:58 AM EST 5:58 PM EST
Astronomical Twilight 5:24 AM EST 6:32 PM EST
Moon No Moon Rise 10:47 AM EST (1/31)
Length of Visible Light 10h 50m
Length of Day
9h 47m
Waning Gibbous, 51% of the Moon is Illuminated
Jan 31
Waning Gibbous
Jan 31
Last Quarter
Feb 7
New
Feb 14
First Quarter
Feb 22
Full

Hourly Weather History & Observations

Time (EST) Temp. Windchill Dew Point Humidity Pressure Visibility Wind Dir Wind Speed Gust Speed Precip Events Conditions
12:52 AM 7.0 °F -1.7 °F -0.9 °F 70% 30.28 in 10.0 mi NNW 4.6 mph - N/A   Overcast
1:52 AM 7.0 °F -4.5 °F 1.0 °F 77% 30.26 in 10.0 mi North 6.9 mph - N/A   Overcast
2:52 AM 7.0 °F -3.3 °F 1.9 °F 80% 30.22 in 3.0 mi NW 5.8 mph - 0.00 in Snow Light Snow
3:52 AM 8.1 °F -2.0 °F 3.0 °F 80% 30.20 in 4.0 mi North 5.8 mph - 0.00 in Snow Light Snow
4:52 AM 9.0 °F 0.6 °F 5.0 °F 84% 30.19 in 4.0 mi North 4.6 mph - 0.00 in Snow Light Snow
5:52 AM 10.0 °F 1.8 °F 5.0 °F 80% 30.16 in 6.0 mi North 4.6 mph - 0.00 in Snow Light Snow
6:52 AM 10.0 °F - 6.1 °F 84% 30.13 in 4.0 mi Calm Calm - 0.00 in Snow Light Snow
7:52 AM 12.0 °F 2.7 °F 8.1 °F 84% 30.10 in 6.0 mi North 5.8 mph - 0.00 in   Overcast
8:52 AM 12.9 °F - 9.0 °F 84% 30.08 in 4.0 mi Calm Calm - 0.00 in Snow Light Snow
9:52 AM 17.1 °F 8.7 °F 12.0 °F 81% 30.05 in 9.0 mi North 5.8 mph - 0.00 in   Overcast
10:52 AM 19.9 °F - 16.0 °F 85% 30.01 in 7.0 mi Calm Calm - 0.01 in   Overcast
11:52 AM 26.1 °F 14.5 °F 18.0 °F 71% 29.96 in 10.0 mi South 13.8 mph 19.6 mph N/A   Overcast
12:52 PM 26.1 °F 14.5 °F 19.0 °F 75% 29.93 in 10.0 mi South 13.8 mph - N/A   Overcast
1:52 PM 27.0 °F 16.7 °F 19.0 °F 72% 29.89 in 10.0 mi South 11.5 mph - N/A   Overcast
2:52 PM 28.0 °F 18.6 °F 19.9 °F 72% 29.86 in 10.0 mi South 10.4 mph - N/A   Overcast
3:52 PM 28.0 °F 17.5 °F 19.9 °F 72% 29.84 in 10.0 mi South 12.7 mph - N/A   Overcast
4:52 PM 27.0 °F 17.3 °F 19.9 °F 75% 29.84 in 10.0 mi South 10.4 mph - N/A   Overcast
5:52 PM 27.0 °F 16.7 °F 19.9 °F 75% 29.83 in 10.0 mi South 11.5 mph - N/A   Overcast
6:52 PM 26.1 °F 18.4 °F 19.9 °F 78% 29.81 in 8.0 mi SSE 6.9 mph - 0.00 in   Overcast
7:52 PM 26.1 °F 16.8 °F 19.9 °F 78% 29.80 in 5.0 mi South 9.2 mph - 0.00 in Snow Light Snow
8:52 PM 26.1 °F 19.4 °F 21.0 °F 81% 29.78 in 8.0 mi South 5.8 mph - 0.00 in Snow Light Snow
9:52 PM 26.1 °F 15.0 °F 19.9 °F 78% 29.74 in 10.0 mi South 12.7 mph - 0.00 in   Overcast
10:52 PM 26.1 °F 17.6 °F 19.9 °F 78% 29.72 in 10.0 mi SSE 8.1 mph - N/A   Overcast
11:52 PM 26.1 °F 14.0 °F 21.0 °F 81% 29.70 in 7.0 mi SE 15.0 mph - 0.00 in Snow Light Snow